Terminal Aerodrome Forecast
Issued by NWS Boston, MA

Home | Current Version | Previous Version | Text Only | Print | Product List | Glossary On
Versions: 1 2 3 4 5 6 7 8 9 10 11 12 13 14 15 16 17 18 19 20 21 22 23 24 25 26 27 28 29 30 31 32 33 34 35 36 37 38 39 40 41
000
FTUS41 KBOX 272320
TAFBOS
TAF
KBOS 272320Z 2800/2906 12008KT P6SM FEW060
     FM280300 21005KT P6SM FEW150
     FM281700 18009KT P6SM SCT200
     FM290300 22006KT P6SM BKN130=

USA.gov is the U.S. government's official web portal to all federal, state and local government web resources and services.